Regional Weather Roundup
Issued by NWS

Home | Current Version | Previous Version | Text Only | Print | Product List | Glossary Off
Versions: 1 2 3 4 5 6 7 8 9 10 11 12 13 14 15 16 17 18 19 20 21 22 23 24 25 26 27 28 29 30 31 32 33 34 35 36 37 38 39 40 41 42 43 44

000
ASUS45 KBOU 180210
RWRCO

WEATHER ROUNDUP FOR COLORADO
NATIONAL WEATHER SERVICE DENVER/BOULDER CO
700 PM MST SAT FEB 17 2018

NOTE: "FAIR" INDICATES FEW OR NO CLOUDS BELOW 12000 FEET WITH NO
SIGNIFICANT WEATHER AND/OR OBSTRUCTIONS TO VISIBILITY.

COZ001>005-013-030-031-180300-
...NORTHWEST COLORADO...

CITY           SKY/WX    TMP DP  RH WIND       PRES   REMARKS
CRAIG          FAIR      34  11  38 W5        29.98F WCI  30
HAYDEN         FAIR      30  17  58 NE5       30.01F WCI  25
MEEKER         FAIR      38  15  39 VRB5      30.02F
RANGELY        FAIR      42  11  28 S12       29.99R
RABBIT EARS PA FAIR      19  10  68 W7        30.02S WCI  10
STEAMBOAT SPGS FAIR      28  15  57 E5        30.00F WCI  23
WALDEN         MOCLDY    32   5  32 S10G23    30.00F WCI  24
$$

COZ006>008-011-180300-
...WEST CENTRAL VALLEYS...

CITY           SKY/WX    TMP DP  RH WIND       PRES   REMARKS
GRAND JUNCTION FAIR      39  23  52 NW3       30.06S
MONTROSE       FAIR      41  16  36 CALM      30.08R
EAGLE          FAIR      33  16  49 S5        30.06S WCI  29
RIFLE          FAIR      32  21  64 SE7       30.05S WCI  26
DELTA          FAIR      43  11  27 N3        30.07S
NUCLA          FAIR      43  16  33 SW8       30.13S
$$

COZ017>023-064>068-180300-
...SOUTHWEST COLORADO...

CITY           SKY/WX    TMP DP  RH WIND       PRES   REMARKS
DURANGO        FAIR      39  14  36 CALM      30.16R
CORTEZ         FAIR      32  13  45 E3        30.14S
PAGOSA SPRINGS FAIR      32  18  58 CALM      30.19R
TELLURIDE      FAIR      37   4  25 E7        30.18S
WOLF CREEK PAS   N/A     18  18 100 S22G29    30.25S WCI   0
$$

COZ009-010-012-014-032>034-037-058>063-180300-
...CENTRAL COLORADO...

CITY           SKY/WX    TMP DP  RH WIND       PRES   REMARKS
ASPEN          FAIR      26  15  63 SW8       30.07R WCI  18
BUENA VISTA    FAIR      38  -1  18 NW15      30.03F
COPPER MTN     FAIR      25   5  42 SW22G43   30.07S HAZE    WCI  10
BERTHOUD PASS  FAIR      16   5  62 NW37G43   29.98F WCI  -6
COTTONWOOD PAS FAIR      36   3  25 NW7       30.06S
GUNNISON       FAIR      32  11  41 N5        30.11S WCI  27
GRANBY         FAIR      28   8  42 N3        30.02F
KREMMLING      FAIR      37  10  32 CALM      30.02F
LEADVILLE      FAIR      25   4  40 NE5       30.05S WCI  19
MONARCH PASS   FAIR      19   0  42 SW32      30.23S WCI   0
SALIDA         FAIR      43  -3  14 SW17G23   30.12S
SUNLIGHT       FAIR      19   9  63 SW21G30     N/A  WCI   3
WILKERSON PASS FAIR      25   0  33 SW24G36   30.05F WCI   9
$$

COZ069>075-180300-
...SAN LUIS VALLEY/SANGRE DE CRISTO MOUNTAINS...

CITY           SKY/WX    TMP DP  RH WIND       PRES   REMARKS
ALAMOSA        FAIR      36  12  37 S12       30.09R
DEL NORTE      FAIR      38  13  36 SW14      30.11S
LA VETA PASS   FAIR      30  10  43 S30G45    30.18F WCI  15
SAGUACHE       FAIR      30  -6  21 N7        30.10S WCI  23
$$

COZ035-036-038>040-180300-
...NORTHERN COLORADO FRONT RANGE...

CITY           SKY/WX    TMP DP  RH WIND       PRES   REMARKS
DENVER INTL AP FAIR      42  16  34 S20       29.87F
AURORA         PTCLDY    45  14  29 S22G30    29.88R
FRONT RANGE AP PTCLDY    41  18  38 SE13G18   29.89F
ERIE MUNI ARPT FAIR      51   3  14 SW16      29.90F
BOULDER MUN AP FAIR      52   7  16 SW9G18    29.85F
CENTENNIAL     FAIR      44  15  31 S23G36    29.88F
BROOMFIELD     PTCLDY    48   5  17 E3        29.88F
FORT COLLINS   FAIR      47  10  22 W13       29.85F
LONGMONT       FAIR      51   4  15 W12G17    29.87F
$$

COZ041-046-047-076>085-087-088-180300-
...PIKES PEAK/PALMER DIVIDE AND SOUTHERN FOOTHILLS...

CITY           SKY/WX    TMP DP  RH WIND       PRES   REMARKS
COLO. SPRINGS  FAIR      42  14  32 SE6       29.97F
A. F. ACADEMY  FAIR      39  11  30 SE8       29.95F
SCHRIEVER AFB  NOT AVBL
CHEYENNE MTN   FAIR      43  11  26 SW7       29.92F
ELLICOTT         N/A    N/A N/A N/A S15       29.94F
FALCON         FAIR      32  10  38 MISG      29.99S
FORT CARSON    FAIR      43  15  31 W7        29.95F
LIMON          FAIR      31  10  41 E10       29.96F WCI  22
MONUMENT HILL  FAIR      34  14  44 S15G26    29.97R WCI  24
CANON CITY     CLEAR     43  19  39 W7        29.95S
WALSENBURG     NOT AVBL
TRINIDAD       FAIR      47  14  26 CALM      30.00R
$$

COZ042>045-048>051-090-091-180300-
...NORTHEAST COLORADO...

CITY           SKY/WX    TMP DP  RH WIND       PRES   REMARKS
GREELEY ARPT   FAIR      41  13  31 S5        29.87R
AKRON          FAIR      39  16  39 S14       29.91F
BURLINGTON     FAIR      37  13  37 S20       29.99F
WRAY           FAIR      37  19  48 SE13      29.96F
YUMA           NOT AVBL
STERLING       FAIR      41  18  38 S12       29.87S
HOLYOKE        FAIR      37  23  56 S13       29.93F
FORT MORGAN    FAIR      44  11  26 S16G24    29.89R
$$

COZ086-089-092>099-180300-
...SOUTHEAST COLORADO...

CITY           SKY/WX    TMP DP  RH WIND       PRES   REMARKS
PUEBLO         FAIR      45  19  35 E9        29.90F
LA JUNTA       FAIR      48   9  20 SE10      29.96F
LAMAR          FAIR      42   7  23 SE10      30.01F
SPRINGFIELD      N/A     39  10  30 S16       30.07F
$$




USA.gov is the U.S. government's official web portal to all federal, state and local government web resources and services.